Probability
9 8 7 7 8 8 6 6 5 4 4 8 11 11 11 11 10 12 12 7 2 0 0 0 0 0 0 0 0 0 0 0 0 0 1 2 2 2
12 10 8 7 7 6 6 6 6 5 6 8 12 13 13 11 11 12 12 8 3 0 0 0 0 0 0 0 0 0 0 0 0 0 0 1 1 1
15 14 11 8 7 6 7 7 8 8 8 9 12 15 15 13 12 12 12 10 6 1 0 0 0 0 0 0 0 0 0 0 0 0 0 0 0 0
16 16 15 12 10 9 10 10 10 10 10 10 11 15 17 16 15 14 12 11 8 3 0 0 0 0 0 0 0 0 0 0 0 0 0 0 0 0
17 18 18 16 14 13 12 12 11 10 11 10 10 13 16 19 20 18 14 12 10 5 2 1 0 0 0 0 0 0 0 0 0 0 0 0 0 0
17 18 17 17 16 13 12 11 10 10 10 10 9 9 13 19 23 22 19 17 14 10 5 3 2 1 0 0 0 0 0 0 0 0 0 0 0 0
17 16 16 16 14 11 10 9 10 10 11 10 9 9 12 18 23 23 23 22 19 15 11 8 5 3 2 1 1 0 0 0 0 0 0 0 0 0
16 16 15 14 13 11 8 7 8 9 10 10 10 10 11 15 19 21 23 24 22 19 16 13 10 8 6 5 3 1 0 0 0 0 0 0 0 0
15 15 14 12 12 12 10 7 7 7 7 8 9 10 11 13 16 18 20 21 21 20 18 15 13 11 9 7 4 1 0 0 0 0 0 0 0 0
13 13 12 11 11 13 13 11 9 8 7 7 9 10 11 12 13 15 17 17 18 18 16 14 13 12 10 8 6 3 1 0 0 0 0 0 0 0
14 13 11 10 10 11 13 15 14 12 10 9 9 9 9 9 10 12 14 14 14 15 14 13 13 11 9 8 7 3 1 0 0 0 0 0 0 0
16 15 12 9 8 8 11 14 15 14 13 11 10 9 8 7 8 10 13 13 13 12 12 13 12 10 8 7 6 4 1 1 1 1 0 0 0 0
16 15 13 9 6 5 7 10 11 12 13 13 12 11 11 10 11 11 13 13 12 11 12 14 12 8 6 5 4 4 4 4 3 2 1 0 0 0
14 13 11 7 4 3 4 5 6 8 12 13 13 13 13 14 14 14 15 14 12 10 12 14 12 9 5 3 2 4 6 6 4 4 2 1 0 0
10 9 8 5 3 3 4 4 5 8 12 14 14 14 14 15 16 16 16 15 12 10 11 12 12 10 6 2 1 4 6 6 6 5 4 2 1 1
7 7 7 5 5 5 6 6 7 11 13 14 14 15 16 16 17 16 16 15 12 9 8 9 9 9 7 4 3 4 5 5 5 5 4 3 3 2
6 7 7 7 7 8 9 10 11 13 15 16 15 15 15 16 15 14 13 12 10 7 6 6 7 7 6 5 5 6 5 5 4 4 4 4 3 3
4 5 6 7 7 9 10 11 12 13 15 17 17 15 13 12 11 11 10 9 8 6 6 6 6 6 6 5 5 5 4 4 3 3 4 3 3 3
3 3 4 4 5 7 8 9 10 10 12 15 16 14 12 9 7 7 6 6 6 6 6 6 6 6 6 4 3 3 3 3 3 3 3 3 2 1
3 3 3 3 4 5 7 7 6 7 9 11 12 12 10 7 4 2 2 3 3 4 4 5 5 6 5 4 3 2 2 2 3 3 3 2 1 0
2 2 2 2 3 5 5 3 3 5 7 8 8 7 5 3 1 0 0 1 1 2 2 3 4 4 4 3 3 3 2 2 2 2 2 1 0 0
1 1 1 1 2 4 3 2 1 3 5 5 4 3 2 1 1 0 0 1 2 3 3 3 3 3 3 3 3 3 3 2 1 1 1 0 0 0
0 0 0 0 1 2 2 1 2 3 4 3 2 2 2 2 2 1 1 2 4 5 5 4 3 3 3 4 4 4 3 2 1 0 0 0 0 0
Wind_Speed
3 3 3 3 2 2 2 1 1 2 3 2 1 1 1 1 4 3 3 7 10 10 11 11 11 10 10 10 9 9 9 9 9 9 9 9 9 10
2 2 3 3 3 3 2 2 1 2 3 2 2 1 1 2 3 2 3 6 10 10 11 12 12 11 10 10 10 9 10 10 10 10 9 9 9 9
3 3 3 4 3 3 3 3 2 2 3 3 2 2 2 2 1 2 2 4 5 10 11 11 12 12 11 11 11 11 11 11 11 11 11 10 10 10
2 2 3 3 3 3 3 3 3 3 3 4 3 2 3 2 2 3 3 4 4 8 11 11 12 12 11 12 12 12 12 12 11 11 11 11 11 11
2 2 2 3 3 3 4 4 4 4 3 4 4 3 3 2 2 3 4 3 4 5 9 10 11 11 11 12 13 13 13 12 12 12 11 11 11 11
2 2 2 2 2 3 3 4 4 4 4 4 4 3 3 2 2 2 3 2 3 3 3 5 8 10 11 12 13 13 12 12 12 11 11 11 10 10
3 3 3 2 2 3 4 3 4 4 4 4 4 4 3 2 2 3 3 2 3 3 1 2 3 4 6 9 12 13 13 12 12 12 11 11 10 10
4 3 4 2 3 4 6 6 4 4 4 4 4 4 4 3 2 3 3 3 3 2 1 3 3 3 4 5 10 13 13 13 12 12 12 11 11 10
4 3 5 4 3 3 5 6 6 7 6 5 6 6 5 4 3 4 3 4 5 3 2 4 3 3 3 4 8 12 13 13 12 12 12 11 11 10
3 3 3 4 5 5 5 5 5 5 6 5 5 6 6 4 4 4 4 5 5 4 3 3 2 3 2 2 6 10 11 12 12 12 11 11 10 10
3 3 3 3 5 6 5 5 6 5 6 7 7 7 8 8 5 3 3 3 4 3 2 2 2 2 2 2 2 7 9 10 10 11 11 11 10 9
3 2 2 3 5 5 4 5 6 6 7 7 5 6 6 6 6 4 3 3 3 3 2 1 1 1 2 2 1 2 4 6 8 9 10 10 10 6
4 3 2 3 4 5 5 5 7 7 6 6 5 3 3 3 3 3 2 2 3 3 2 1 1 2 2 2 1 2 2 3 4 4 6 8 9 8
4 3 3 5 6 7 6 8 9 7 4 4 3 2 2 2 2 2 3 3 3 3 3 1 1 2 2 2 2 2 2 3 3 3 3 4 6 8
4 5 7 8 7 6 7 8 6 4 3 3 3 2 2 3 2 2 2 2 2 3 2 2 2 2 2 2 2 2 1 1 2 2 2 3 3 4
4 6 8 8 7 6 5 4 3 3 3 3 3 3 3 2 2 1 1 1 1 2 2 2 2 2 2 2 2 2 1 1 1 1 1 2 2 3
5 5 4 3 3 3 3 2 2 2 2 3 3 3 3 3 2 2 1 1 1 2 2 2 2 1 1 2 2 1 1 1 1 1 1 1 1 2
4 4 4 4 3 3 3 3 2 2 3 3 3 3 3 3 3 2 2 1 1 2 2 1 1 1 1 1 1 1 1 1 1 1 1 2 1 1
3 3 3 3 3 3 3 3 3 2 2 3 3 3 3 3 2 2 2 2 2 2 2 1 1 1 1 2 2 1 1 1 0 0 1 1 1 1
2 3 3 3 3 3 3 3 3 2 2 2 3 3 3 2 2 2 2 2 2 2 2 1 1 1 2 3 2 2 2 2 1 1 1 0 0 2
3 3 3 4 4 3 3 3 3 3 3 2 2 3 3 3 2 3 2 3 3 2 2 2 2 2 2 1 1 2 1 1 1 2 1 1 1 1
4 4 3 4 4 4 3 3 3 3 3 3 2 2 3 3 3 3 2 2 2 2 2 2 1 1 1 1 2 2 1 0 0 1 1 1 2 2
3 4 3 3 3 3 3 4 4 4 3 3 3 3 3 3 3 2 2 2 2 2 2 2 1 1 1 1 2 1 0 0 0 1 1 1 2 3
Wind_Direction
320 329 326 315 321 324 309 284 280 302 300 292 302 248 207 165 167 191 189 205 208 209 211 212 214 214 213 209 207 208 210 211 214 214 212 214 219 223
319 333 327 324 328 323 317 307 286 281 289 302 287 271 289 271 182 204 209 212 214 209 212 212 212 209 211 210 205 206 209 211 215 214 214 216 220 223
326 340 329 315 328 325 322 320 310 299 288 291 287 289 264 264 228 241 226 217 211 211 211 211 208 206 210 210 206 207 210 212 214 216 218 218 221 224
319 329 328 323 330 322 320 311 304 294 285 292 294 286 277 259 226 243 254 245 222 213 207 208 207 208 211 211 209 210 214 215 215 217 220 220 221 223
315 321 323 325 328 322 314 312 306 305 296 290 288 278 276 275 259 256 261 260 244 221 206 207 210 212 214 215 213 214 215 215 214 216 217 218 219 221
302 300 299 309 311 309 305 310 308 308 304 296 289 288 284 289 285 278 278 272 273 258 220 211 213 217 220 218 216 215 215 214 215 214 214 214 216 219
307 306 293 287 313 306 308 312 306 302 300 295 293 299 298 300 284 279 277 276 267 259 242 228 213 217 221 224 220 214 213 213 212 211 211 214 216 218
298 299 287 279 294 289 299 299 292 287 292 291 290 286 284 287 284 279 288 288 278 254 241 259 233 228 223 213 211 205 207 211 211 209 208 210 214 216
303 304 303 318 318 306 288 278 280 279 273 274 281 284 286 289 289 289 290 293 279 263 248 259 242 239 239 227 206 202 202 205 208 209 207 209 211 212
299 298 303 311 322 321 303 294 283 279 269 261 266 276 283 287 276 272 269 273 271 261 229 245 252 246 249 229 205 200 201 203 204 207 208 208 210 212
291 305 308 305 315 316 302 299 296 290 283 279 266 265 272 283 284 288 286 286 285 278 251 234 258 276 261 255 220 195 193 198 205 209 208 207 207 207
297 290 311 316 319 323 303 298 298 300 303 300 288 271 266 268 265 254 265 277 287 283 294 278 254 278 282 263 243 200 206 209 212 215 212 210 206 201
308 305 310 319 315 314 300 289 288 293 293 290 282 268 256 255 253 249 256 261 273 280 306 322 290 284 262 272 263 237 211 201 197 215 217 213 205 194
304 307 315 316 301 290 284 286 292 295 288 287 286 288 286 276 267 259 255 248 251 260 290 306 270 271 271 275 275 246 222 205 192 198 199 201 201 199
305 315 309 297 289 279 270 276 285 288 286 288 295 293 286 273 261 254 253 239 244 262 274 264 244 262 268 270 278 275 269 215 190 188 182 187 194 186
310 307 293 286 283 286 290 277 261 270 283 287 291 294 297 298 300 283 268 246 262 281 291 295 275 246 265 279 277 291 284 233 196 188 179 187 187 179
315 296 291 296 296 292 293 294 297 296 289 292 297 306 309 313 309 297 281 274 265 279 298 305 287 263 233 253 259 273 286 260 193 176 169 174 172 169
302 291 295 305 310 311 310 307 307 310 306 297 293 299 301 299 305 318 313 298 287 288 291 296 305 314 312 333 316 273 271 263 243 176 169 177 187 175
269 282 297 308 311 315 317 313 308 305 298 300 299 294 291 297 303 311 315 312 309 298 292 297 296 265 274 279 300 299 264 273 271 130 169 175 196 178
287 309 314 315 318 322 321 315 313 319 319 315 316 317 316 307 306 305 299 298 298 296 298 311 308 275 246 254 263 289 276 243 223 211 204 163 125 105
336 332 330 331 329 325 321 320 319 318 321 322 324 325 323 313 305 302 304 291 281 287 292 288 273 268 262 258 263 274 284 232 205 182 194 196 191 157
336 333 332 334 334 331 331 329 330 332 330 326 321 319 318 315 311 308 300 287 279 280 285 290 311 303 281 246 253 263 259 279 42 46 17 194 184 186
324 324 327 336 337 330 335 334 332 335 340 334 329 320 313 307 299 294 297 295 294 293 284 282 275 257 241 243 256 256 304 288 173 121 8 336 164 144